Flag for Norway Weather past 2 weeks in Askim, Norway

Now
45 °F

Drizzle. Overcast.


Feels Like: 40 °F
Forecast: 38 / 51 °F
Wind: 9 mph from East

Location: Rygge

Current Time: Oct 22, 2014 at 2:47:43 PM

Latest Report: Oct 22, 2014 at 2:20 PM


Visibility: N/A

Pressure: 29.95 "Hg

Humidity: 87%

Dew point: 41 °F

Location of AskimLocation

Historic Weather in Askim — Graph

°F

Askim temperature yesterday

Maximum temperature yesterday: 52 °F (at 11:20 AM)
Minimum temperature yesterday: 43 °F (at 1:50 AM)
Average temperature yesterday: 48 °F

Past Weeks' High & Low Weather Summary

 TemperatureHumidityPressure
High61 °F (Oct 20, 3:50 PM)100% (Oct 7, 11:50 PM)30.09 "Hg (Oct 7, 11:50 PM)
Low34 °F (Oct 13, 6:50 AM)59% (Oct 20, 3:50 PM)29.30 "Hg (Oct 20, 4:20 AM)
Average48 °F91%29.74 "Hg
* Reported Oct 7 1:20 PM — Oct 22 1:50 PM, Askim, Weather by CustomWeather, © 2014

Note: Actual official high and low records may vary slightly from our data, if they occured in-between our weather recording intervals... More about our weather records

Advertising

Askim weather history for previous 24 hours

 ConditionsComfort  
Time TempWeatherWind HumidityBarometerVisibility
1:50 PM
Oct 22
45 °FDrizzle. Partly sunny.12 mph87%29.92 "HgN/A
1:20 PM45 °FLight rain. Partly sunny.13 mph87%29.92 "HgN/A
12:50 PM45 °FLight rain. Partly sunny.16 mph87%29.89 "HgN/A
12:20 PM46 °FDrizzle. Partly sunny.15 mph82%29.89 "HgN/A
11:50 AM46 °FDrizzle. Partly sunny.13 mph87%29.86 "HgN/A
11:20 AM46 °FDrizzle. Partly sunny.15 mph87%29.86 "HgN/A
10:50 AM46 °FDrizzle. Partly sunny.14 mph87%29.83 "HgN/A
10:20 AM46 °FPartly sunny.15 mph87%29.83 "HgN/A
9:50 AM46 °FDrizzle. Partly sunny.16 mph87%29.80 "HgN/A
9:20 AM46 °FDrizzle. Broken clouds.15 mph93%29.77 "HgN/A
8:50 AM46 °FPassing clouds.15 mph93%29.77 "HgN/A
8:20 AM46 °FPartly cloudy.15 mph93%29.74 "HgN/A
7:50 AM48 °FLight rain. Mostly cloudy.16 mph87%29.71 "HgN/A
7:20 AM48 °FDrizzle. Mostly cloudy.14 mph87%29.71 "HgN/A
6:50 AM48 °FDrizzle. Low clouds.13 mph94%29.68 "HgN/A
6:20 AM48 °FDrizzle. Mostly cloudy.13 mph94%29.68 "HgN/A
5:50 AM48 °FDrizzle. Mostly cloudy.13 mph94%29.65 "HgN/A
5:20 AM48 °FLight rain. Mostly cloudy.13 mph94%29.65 "HgN/A
4:50 AM48 °FPartly cloudy.14 mph94%29.62 "HgN/A
4:20 AM48 °FDrizzle. Overcast.14 mph94%29.62 "HgN/A
3:50 AM48 °FDrizzle. Mostly cloudy.14 mph94%29.62 "HgN/A
3:20 AM50 °FDrizzle. Mostly cloudy.14 mph88%29.59 "HgN/A
2:50 AM50 °FLight rain. Mostly cloudy.13 mph88%29.59 "HgN/A
2:20 AM50 °FDrizzle. Overcast.14 mph88%29.56 "HgN/A
1:50 AM50 °FLight rain. Overcast.13 mph88%29.56 "HgN/A
1:20 AM48 °FPassing clouds.10 mph100%29.53 "HgN/A
12:50 AM48 °FDrizzle. Mostly cloudy.10 mph94%29.53 "HgN/A
12:20 AM48 °FPartly cloudy.10 mph94%29.53 "HgN/A
11:50 PM
Oct 21
48 °FPartly cloudy.13 mph94%29.50 "HgN/A
11:20 PM50 °FLight rain. Partly cloudy.13 mph88%29.50 "HgN/A
10:50 PM48 °FLight rain. Partly cloudy.13 mph94%29.47 "HgN/A
10:20 PM48 °FPassing clouds.14 mph94%29.47 "HgN/A
9:50 PM48 °FPassing clouds.14 mph94%29.47 "HgN/A
9:20 PM48 °FPassing clouds.15 mph94%29.47 "HgN/A
8:50 PM48 °FLight rain. Passing clouds.15 mph94%29.47 "Hg6 mi
8:20 PM48 °FPartly cloudy.15 mph94%29.47 "HgN/A
7:50 PM50 °FLight rain. Partly cloudy.13 mph88%29.47 "HgN/A
7:20 PM50 °FLight rain. Passing clouds.13 mph88%29.45 "Hg6 mi
6:50 PM50 °FPartly sunny.13 mph88%29.45 "HgN/A
6:20 PM50 °FBroken clouds.14 mph88%29.45 "HgN/A
5:50 PM50 °FLight rain. Broken clouds.13 mph88%29.45 "Hg6 mi
5:20 PM50 °FLight rain. Broken clouds.13 mph88%29.45 "Hg5 mi
4:50 PM52 °FPartly sunny.14 mph82%29.47 "HgN/A
4:20 PM50 °FBroken clouds.12 mph94%29.47 "HgN/A
3:50 PM50 °FBroken clouds.12 mph94%29.47 "HgN/A
3:20 PM52 °FPartly sunny.13 mph88%29.47 "HgN/A
2:50 PM50 °FPartly sunny.12 mph94%29.47 "Hg5 mi
2:20 PM50 °FLight rain. Broken clouds.13 mph94%29.47 "Hg4 mi
Weather by CustomWeather, © 2014

See weather overviewHow to use our weather pages